User: anonymous   Login
Location: Oberwangen
(47.4286°N, 8.9679°E)
Time: 11:55:59
(UTC+00:00)
Language:

Cosmos 1980 - Orbit

View from above orbital plane
View from above orbital plane
View from above satellite
View from above satellite

Ground track
Ground track

The orbit data is extracted from the following two-line orbital elements,

1 19649U 88102A   21260.70993626  .00000019  00000-0  34532-4 0  9992
2 19649  71.0020  45.0264 0003331 125.2213 234.9222 14.14739886694013
Epoch (UTC): 17 September 2021 17:02:18
Eccentricity: 0.0003331
inclination: 71.0020°
perigee height: 841 km
apogee height: 845 km
right ascension of ascending node: 45.0264°
argument of perigee: 125.2213°
revolutions per day: 14.14739886
mean anomaly at epoch: 234.9222°
orbit number at epoch: 69401

The dashed part of the orbit path shows where the satellite is in the earth's shadow,  

DLR